User: anonymous   Login
Location: Unspecified
(0.0000°N, 0.0000°E)
Time: 05:49:51
(UTC+01:00)
Language:

ISS - Orbit

View from above orbital plane
View from above orbital plane
View from above satellite
View from above satellite

Ground track
Ground track

The orbit data is extracted from the following two-line orbital elements,

1 25544U 98067A   14354.79182005  .00024682  00000-0  40110-3 0  5996
2 25544 051.6470 254.1715 0007596 155.3628 274.6421 15.52525600920285
Epoch (UTC): 20 December 2014 19:00:13
Eccentricity: 0.0007596
inclination: 51.6470°
perigee height: 404 km
apogee height: 414 km
right ascension of ascending node: 254.1715°
argument of perigee: 155.3628°
revolutions per day: 15.52525600
mean anomaly at epoch: 274.6421°
orbit number at epoch: 92028

The dashed part of the orbit path shows where the satellite is in the earth's shadow,  

DLR